Weather History for Olean, NY

Change the Weather History Date:

Tuesday, January 22, 2013

  Actual Average (KBFD) Record (KBFD)
Temperature  
Mean Temperature 4 °F 21 °F  
Max Temperature 6 °F 29 °F 51 °F (1959)
Min Temperature 1 °F 14 °F -14 °F (1984)
Degree Days  
Heating Degree Days 62 38  
Month to date heating degree days 836  
Since 1 July heating degree days 3892  
Cooling Degree Days 0 0  
Month to date cooling degree days 0  
Year to date cooling degree days 0  
Moisture  
Dew Point -2 °F    
Average Humidity 77    
Maximum Humidity 92    
Minimum Humidity 52    
Precipitation  
Precipitation 0.00 in 0.11 in 0.45 in (1962)
Month to date precipitation 2.38  
Year to date precipitation 2.38  
Sea Level Pressure  
Sea Level Pressure 29.91 in    
Wind  
Wind Speed 8 mph (West)    
Max Wind Speed 16 mph    
Max Gust Speed 29 mph    
Visibility 2 miles    
Events Snow    
T = Trace of Precipitation, MM = Missing Value Source: NWS Daily Summary

Daily Weather History Graph

Daily Weather History Graph

Search for Another Location

Airport:

Trip Planner

Search our weather history database for the weather conditions in past years. The results will help you decide how hot, cold, wet, or windy it might be!

Date:

Astronomy

Jan. 22, 2013 Rise Set
Actual Time 7:35 AM EST 5:15 PM EST
Civil Twilight 7:04 AM EST 5:45 PM EST
Nautical Twilight 6:30 AM EST 6:19 PM EST
Astronomical Twilight 5:57 AM EST 6:53 PM EST
Moon 1:36 PM EST (1/22) 3:56 AM EST (1/22)
Length of Visible Light 10h 40m
Length of Day
9h 39m
Waxing Gibbous, 82% of the Moon is Illuminated
Jan 22
Waxing Gibbous
Jan 26
Full
Feb 3
Last Quarter
Feb 10
New
Feb 17
First Quarter

Hourly Weather History & Observations

Time (EST) Temp. Windchill Dew Point Humidity Pressure Visibility Wind Dir Wind Speed Gust Speed Precip Events Conditions
12:35 AM 6.8 °F -4.8 °F 3.2 °F 85% 29.76 in 5.0 mi WNW 6.9 mph - N/A Snow Light Snow
12:55 AM 6.8 °F -0.1 °F 3.2 °F 85% 29.76 in 1.8 mi West 3.5 mph - N/A Snow Light Snow
1:15 AM 6.8 °F -2.0 °F 5.0 °F 92% 29.76 in 1.0 mi West 4.6 mph - N/A Snow Light Snow
1:35 AM 6.8 °F -8.6 °F 3.2 °F 85% 29.76 in 0.8 mi WNW 11.5 mph 17.3 mph N/A Snow Snow
2:15 AM 6.8 °F -4.8 °F 3.2 °F 85% 29.77 in 1.2 mi WNW 6.9 mph - N/A Snow Light Snow
2:35 AM 6.8 °F -4.8 °F 3.2 °F 85% 29.78 in 0.8 mi WNW 6.9 mph - N/A Snow Snow
2:55 AM 5.0 °F -6.9 °F 3.2 °F 92% 29.78 in 0.5 mi WNW 6.9 mph 17.3 mph N/A Snow Heavy Snow
3:15 AM 5.0 °F -5.6 °F 3.2 °F 92% 29.78 in 0.5 mi WNW 5.8 mph - N/A Snow Snow
3:35 AM 5.0 °F -6.9 °F 1.4 °F 85% 29.79 in 1.5 mi West 6.9 mph 28.8 mph N/A Snow Light Snow
3:55 AM 5.0 °F -10.0 °F -0.4 °F 78% 29.79 in 3.0 mi WNW 10.4 mph 25.3 mph N/A Snow Light Snow
4:15 AM 5.0 °F -10.8 °F -4.0 °F 66% 29.79 in 4.0 mi West 11.5 mph 28.8 mph N/A   Haze
4:35 AM 3.2 °F -13.1 °F -4.0 °F 72% 29.80 in 4.0 mi West 11.5 mph 24.2 mph N/A Snow Light Snow
4:55 AM 3.2 °F -9.1 °F -0.4 °F 85% 29.81 in 2.0 mi West 6.9 mph 19.6 mph N/A Snow Light Snow
5:15 AM 3.2 °F -6.2 °F -2.2 °F 78% 29.82 in 3.0 mi West 4.6 mph 16.1 mph N/A Snow Light Snow
5:35 AM 3.2 °F -13.1 °F -4.0 °F 72% 29.82 in 4.0 mi West 11.5 mph 27.6 mph N/A   Haze
5:55 AM 3.2 °F -11.3 °F -4.0 °F 72% 29.82 in 4.0 mi West 9.2 mph 20.7 mph N/A   Haze
6:15 AM 3.2 °F -10.3 °F -2.2 °F 78% 29.83 in 3.0 mi West 8.1 mph - N/A   Haze
6:35 AM 3.2 °F -9.1 °F -0.4 °F 85% 29.85 in 1.5 mi West 6.9 mph - N/A Snow Light Snow
6:55 AM 3.2 °F -11.3 °F -0.4 °F 85% 29.85 in 1.2 mi West 9.2 mph - N/A Snow Light Snow
7:15 AM 3.2 °F -4.2 °F -2.2 °F 78% 29.85 in 2.0 mi West 3.5 mph 17.3 mph N/A Snow Light Snow
7:35 AM 3.2 °F -11.3 °F -4.0 °F 72% 29.86 in 3.0 mi West 9.2 mph 16.1 mph N/A   Haze
7:55 AM 3.2 °F -9.1 °F -4.0 °F 72% 29.87 in 2.5 mi West 6.9 mph - N/A Snow Light Snow
8:15 AM 3.2 °F -10.3 °F -4.0 °F 72% 29.87 in 1.5 mi West 8.1 mph - N/A Snow Light Snow
8:35 AM 3.2 °F -11.3 °F -4.0 °F 72% 29.88 in 1.5 mi West 9.2 mph 16.1 mph N/A Snow Light Snow
8:55 AM 3.2 °F -9.1 °F -4.0 °F 72% 29.89 in 1.2 mi West 6.9 mph 19.6 mph N/A Snow Light Snow
9:15 AM 3.2 °F -13.1 °F -4.0 °F 72% 29.89 in 1.8 mi West 11.5 mph 20.7 mph N/A   Haze
9:35 AM 3.2 °F -12.2 °F -4.0 °F 72% 29.90 in 3.0 mi West 10.4 mph 18.4 mph N/A Snow Light Snow
9:55 AM 3.2 °F -11.3 °F -4.0 °F 72% 29.91 in 4.0 mi West 9.2 mph 19.6 mph N/A   Haze
10:15 AM 3.2 °F -11.3 °F -4.0 °F 72% 29.92 in 3.0 mi West 9.2 mph 17.3 mph N/A   Haze
10:35 AM 5.0 °F -10.0 °F -4.0 °F 66% 29.92 in 1.8 mi West 10.4 mph 17.3 mph N/A   Haze
10:55 AM 3.2 °F -13.1 °F -2.2 °F 78% 29.93 in 0.8 mi West 11.5 mph 20.7 mph N/A Snow Light Snow
11:15 AM 5.0 °F -10.8 °F -4.0 °F 66% 29.92 in 1.8 mi West 11.5 mph 27.6 mph N/A Snow Light Snow
11:35 AM 3.2 °F -13.1 °F -2.2 °F 78% 29.92 in 1.0 mi WSW 11.5 mph 17.3 mph N/A Snow Light Snow
11:55 AM 3.2 °F -15.3 °F -0.4 °F 85% 29.93 in 0.2 mi WNW 15.0 mph 25.3 mph N/A Snow Heavy Snow
12:15 PM 3.2 °F -15.9 °F -4.0 °F 72% 29.92 in 1.2 mi West 16.1 mph 25.3 mph N/A Snow Light Snow
12:35 PM 5.0 °F -10.8 °F -9.4 °F 52% 29.93 in 3.0 mi WSW 11.5 mph 23.0 mph N/A   Haze
12:55 PM 3.2 °F -14.6 °F -7.6 °F 61% 29.92 in 2.5 mi WSW 13.8 mph 23.0 mph N/A Snow Light Snow
1:15 PM 3.2 °F -9.1 °F -7.6 °F 61% 29.92 in 2.5 mi WSW 6.9 mph 24.2 mph N/A   Haze
1:35 PM 3.2 °F -12.2 °F -7.6 °F 61% 29.92 in 2.5 mi West 10.4 mph 21.9 mph N/A   Haze
1:55 PM 3.2 °F -14.6 °F -7.6 °F 61% 29.92 in 2.5 mi West 13.8 mph 25.3 mph N/A   Haze
2:15 PM 3.2 °F -13.1 °F -7.6 °F 61% 29.93 in 2.0 mi West 11.5 mph 23.0 mph N/A   Haze
2:35 PM 3.2 °F -13.9 °F -7.6 °F 61% 29.94 in 5.0 mi West 12.7 mph 20.7 mph N/A   Haze
2:55 PM 3.2 °F -10.3 °F -5.8 °F 66% 29.94 in 4.0 mi West 8.1 mph 16.1 mph N/A   Haze
3:15 PM 3.2 °F -13.1 °F -5.8 °F 66% 29.95 in 7.0 mi SW 11.5 mph 16.1 mph N/A   Overcast
3:35 PM 3.2 °F -9.1 °F -5.8 °F 66% 29.95 in 5.0 mi West 6.9 mph 18.4 mph N/A   Haze
3:55 PM 3.2 °F -11.3 °F -5.8 °F 66% 29.96 in 3.0 mi West 9.2 mph 20.7 mph N/A   Haze
4:15 PM 3.2 °F -11.3 °F -5.8 °F 66% 29.96 in 3.0 mi West 9.2 mph 20.7 mph N/A   Haze
4:35 PM 3.2 °F -13.9 °F -4.0 °F 72% 29.97 in 4.0 mi West 12.7 mph 18.4 mph N/A   Haze
4:55 PM 3.2 °F -11.3 °F -5.8 °F 66% 29.97 in 4.0 mi West 9.2 mph 17.3 mph N/A   Haze
5:15 PM 3.2 °F -6.2 °F -4.0 °F 72% 29.97 in 3.0 mi West 4.6 mph - N/A   Haze
5:35 PM 1.4 °F -6.2 °F -4.0 °F 78% 29.99 in 2.5 mi WSW 3.5 mph - N/A Snow Light Snow
5:55 PM 1.4 °F -6.2 °F -2.2 °F 85% 29.99 in 2.5 mi West 3.5 mph - N/A Snow Light Snow
6:15 PM 3.2 °F -4.2 °F -2.2 °F 78% 29.99 in 3.0 mi West 3.5 mph - N/A Snow Light Snow
6:35 PM 3.2 °F -6.2 °F -2.2 °F 78% 29.99 in 2.0 mi West 4.6 mph - N/A Snow Light Snow
6:55 PM 3.2 °F - -0.4 °F 85% 30.00 in 2.0 mi Calm Calm - N/A Snow Light Snow
7:15 PM 3.2 °F - -0.4 °F 85% 30.00 in 1.8 mi Calm Calm - N/A Snow Light Snow
7:35 PM 3.2 °F -6.2 °F -0.4 °F 85% 30.00 in 1.5 mi West 4.6 mph - N/A Snow Light Snow
7:55 PM 3.2 °F -4.2 °F -0.4 °F 85% 30.00 in 1.5 mi West 3.5 mph - N/A Snow Light Snow
8:15 PM 3.2 °F -4.2 °F -0.4 °F 85% 30.00 in 1.2 mi West 3.5 mph - N/A Snow Light Snow
8:35 PM 3.2 °F -4.2 °F -0.4 °F 85% 30.00 in 1.5 mi West 3.5 mph - N/A Snow Light Snow
8:55 PM 3.2 °F -4.2 °F -0.4 °F 85% 30.00 in 2.0 mi WSW 3.5 mph - N/A Snow Light Snow
9:15 PM 3.2 °F - -0.4 °F 85% 30.00 in 2.0 mi Calm Calm - N/A Snow Light Snow
9:35 PM 3.2 °F -7.8 °F -0.4 °F 85% 30.00 in 2.0 mi West 5.8 mph - N/A Snow Light Snow
9:55 PM 3.2 °F -6.2 °F -0.4 °F 85% 30.00 in 2.5 mi West 4.6 mph - N/A Snow Light Snow
10:15 PM 3.2 °F -4.2 °F -0.4 °F 85% 30.00 in 2.5 mi West 3.5 mph - N/A Snow Light Snow
10:35 PM 3.2 °F -4.2 °F -0.4 °F 85% 30.01 in 1.8 mi WSW 3.5 mph - N/A Snow Light Snow
10:55 PM 3.2 °F - -0.4 °F 85% 30.00 in 1.5 mi Calm Calm - N/A Snow Light Snow
11:15 PM 3.2 °F -6.2 °F -0.4 °F 85% 30.01 in 1.5 mi WSW 4.6 mph - N/A Snow Light Snow
11:35 PM 3.2 °F -4.2 °F -0.4 °F 85% 30.00 in 1.5 mi WSW 3.5 mph - N/A Snow Light Snow
11:55 PM 3.2 °F -4.2 °F -0.4 °F 85% 30.00 in 2.0 mi WSW 3.5 mph - N/A Snow Light Snow